Location: *
(58.7167°N, 26.1833°E)
Time: 15:52:14
(UTC+00:00)

COSMOS 2428 - Pass Details

Date: 25 August 2019
Orbit: 845 x 857 km, 70.9° (Epoch: 23 October)

Event Time Altitude Azimuth Distance (km) Brightness Sun altitude
Rises 21:47:06 0° 322° (NW) 3,423 6.9 -20.4°
Reaches altitude 10° 21:49:35 10° 319° (NW) 2,483 5.9 -20.4°
Maximum altitude 21:55:12 63° 240° (WSW) 945 2.8 -20.5°
Enters shadow 21:57:02 41° 178° (S) 1,208 3.0 -20.5°
